Storm Lake, IA

3:08 AM CDT on June 26, 2017 (GMT -0500)
Storm Lake Municipal

Weather History for KSLB - February, 2012

Change the Weather History Date:

Saturday, February 25, 2012

  Actual Average Record
Temperature  
Mean Temperature 9 °F -  
Max Temperature 18 °F 32 °F 53 °F (1998)
Min Temperature 0 °F 18 °F -5 °F (2003)
Degree Days  
Heating Degree Days 56    
Moisture  
Dew Point 8 °F    
Average Humidity 85    
Maximum Humidity 90    
Minimum Humidity 77    
Precipitation  
Precipitation 0.00 in - - ()
Sea Level Pressure  
Sea Level Pressure 30.15 in    
Wind  
Wind Speed 12 mph (SW)    
Max Wind Speed 21 mph    
Max Gust Speed -    
Visibility 10 miles    
Events      
Averages and records for this station are not official NWS values.
T = Trace of Precipitation, MM = Missing Value Source: NWS Daily Summary

Daily Weather History Graph

Daily Weather History Graph

Search for Another Location

Airport or City:

Trip Planner

Search our weather history database for the weather conditions in past years. The results will help you decide how hot, cold, wet, or windy it might be!

Date:

Astronomy

Feb. 25, 2012 Rise Set
Actual Time 7:03 AM CST 6:05 PM CST
Civil Twilight 6:35 AM CST 6:33 PM CST
Nautical Twilight 6:02 AM CST 7:06 PM CST
Astronomical Twilight 5:29 AM CST 7:38 PM CST
Moon 8:21 AM CST (2/25) 10:14 PM CST (2/25)
Length of Visible Light 11h 58m
Length of Day
11h 01m
Waxing Crescent, 14% of the Moon is Illuminated
Feb 25
Waxing Crescent
Feb 29
First Quarter
Mar 8
Full
Mar 14
Last Quarter
Mar 22
New

Hourly Weather History & Observations

Time (CST) Temp. Windchill Dew Point Humidity Pressure Visibility Wind Dir Wind Speed Gust Speed Precip Events Conditions
12:15 AM 14.9 °F 1.6 °F 12.2 °F 89% 30.16 in 10.0 mi WNW 11.5 mph - N/A   Overcast
12:35 AM 15.6 °F 0.6 °F 12.0 °F 86% 30.16 in 10.0 mi WNW 15.0 mph - N/A   Overcast
12:55 AM 15.6 °F 1.2 °F 12.6 °F 88% 30.16 in 10.0 mi WNW 13.8 mph - N/A   Overcast
1:15 AM 14.7 °F 0.1 °F 11.3 °F 86% 30.17 in 10.0 mi WNW 13.8 mph - N/A   Mostly Cloudy
1:35 AM 13.6 °F -0.7 °F 10.4 °F 87% 30.17 in 10.0 mi WNW 12.7 mph - N/A   Mostly Cloudy
1:55 AM 11.5 °F -3.4 °F 7.9 °F 85% 30.17 in 10.0 mi WNW 12.7 mph - N/A   Overcast
2:15 AM 10.9 °F -4.1 °F 7.5 °F 86% 30.18 in 10.0 mi WNW 12.7 mph - N/A   Scattered Clouds
2:35 AM 10.0 °F -5.9 °F 6.8 °F 87% 30.18 in 10.0 mi WNW 13.8 mph - N/A   Clear
2:55 AM 8.6 °F -6.3 °F 5.5 °F 87% 30.18 in 10.0 mi West 11.5 mph - N/A   Clear
3:15 AM 6.6 °F -9.5 °F 3.9 °F 89% 30.18 in 10.0 mi West 12.7 mph - N/A   Clear
3:35 AM 5.7 °F -9.9 °F 2.7 °F 87% 30.19 in 10.0 mi West 11.5 mph - N/A   Clear
3:55 AM 5.9 °F -10.5 °F 3.6 °F 90% 30.20 in 10.0 mi West 12.7 mph - N/A   Clear
4:15 AM 3.7 °F -13.2 °F 0.9 °F 88% 30.21 in 10.0 mi WNW 12.7 mph - N/A   Clear
4:35 AM 4.8 °F -13.2 °F 2.1 °F 89% 30.21 in 10.0 mi WNW 15.0 mph - N/A   Clear
4:55 AM 6.4 °F -11.7 °F 4.1 °F 90% 30.20 in 10.0 mi WNW 16.1 mph - N/A   Clear
5:15 AM 5.7 °F -11.4 °F 3.0 °F 89% 30.21 in 10.0 mi WNW 13.8 mph - N/A   Clear
5:55 AM 4.1 °F -11.1 °F 1.0 °F 87% 30.21 in 10.0 mi WNW 10.4 mph - N/A   Clear
6:15 AM 5.5 °F -8.4 °F 2.8 °F 89% 30.20 in 10.0 mi NW 9.2 mph - N/A   Clear
6:35 AM 5.5 °F -6.3 °F 2.3 °F 86% 30.20 in 10.0 mi NNW 6.9 mph - N/A   Clear
7:15 AM 1.6 °F -13.3 °F -1.5 °F 87% 30.22 in 10.0 mi West 9.2 mph - N/A   Clear
7:35 AM 0.5 °F -15.6 °F -2.2 °F 88% 30.23 in 10.0 mi West 10.4 mph - N/A   Clear
7:55 AM 2.5 °F -14.0 °F -0.0 °F 89% 30.24 in 10.0 mi West 11.5 mph - N/A   Clear
8:15 AM 2.1 °F -13.6 °F -0.8 °F 88% 30.25 in 10.0 mi West 10.4 mph - N/A   Clear
8:35 AM 3.2 °F -12.2 °F 0.3 °F 88% 30.24 in 10.0 mi West 10.4 mph - N/A   Clear
8:55 AM 4.3 °F -7.8 °F 1.2 °F 87% 30.25 in 10.0 mi West 6.9 mph - N/A   Clear
9:15 AM 5.5 °F -8.4 °F 1.9 °F 85% 30.25 in 10.0 mi West 9.2 mph - N/A   Clear
9:35 AM 6.4 °F -3.9 °F 2.5 °F 84% 30.24 in 10.0 mi West 5.8 mph - N/A   Clear
9:55 AM 7.7 °F 1.0 °F 3.4 °F 83% 30.24 in 10.0 mi WNW 3.5 mph - N/A   Clear
10:15 AM 8.6 °F -2.6 °F 4.1 °F 82% 30.24 in 10.0 mi West 6.9 mph - N/A   Clear
10:35 AM 10.0 °F 3.6 °F 5.0 °F 80% 30.25 in 10.0 mi WSW 3.5 mph - N/A   Clear
10:55 AM 9.5 °F 3.0 °F 5.2 °F 83% 30.24 in 10.0 mi West 3.5 mph - N/A   Clear
11:15 AM 11.8 °F - 6.8 °F 80% 30.23 in 10.0 mi Calm Calm - N/A   Clear
11:35 AM 12.9 °F - 7.0 °F 77% 30.22 in 10.0 mi Calm Calm - N/A   Clear
11:55 AM 12.4 °F - 7.7 °F 82% 30.21 in 10.0 mi Calm Calm - N/A   Clear
12:35 PM 14.4 °F 5.5 °F 9.1 °F 80% 30.21 in 10.0 mi South 5.8 mph - N/A   Clear
12:55 PM 14.5 °F 7.1 °F 9.5 °F 80% 30.21 in 10.0 mi South 4.6 mph - N/A   Clear
1:15 PM 14.7 °F 5.9 °F 9.9 °F 81% 30.19 in 10.0 mi South 5.8 mph - N/A   Clear
1:35 PM 15.3 °F 5.4 °F 9.9 °F 79% 30.18 in 10.0 mi South 6.9 mph - N/A   Clear
1:55 PM 15.8 °F 4.2 °F 10.4 °F 79% 30.16 in 10.0 mi SSE 9.2 mph - N/A   Clear
2:15 PM 15.6 °F 4.0 °F 10.6 °F 80% 30.14 in 10.0 mi SSE 9.2 mph - N/A   Clear
2:55 PM 17.1 °F 4.3 °F 12.2 °F 81% 30.11 in 10.0 mi SSE 11.5 mph - N/A   Clear
3:15 PM 17.2 °F 4.5 °F 12.2 °F 81% 30.11 in 10.0 mi SE 11.5 mph - N/A   Clear
3:35 PM 17.8 °F 4.6 °F 12.7 °F 81% 30.09 in 10.0 mi SE 12.7 mph - N/A   Clear
3:55 PM 18.1 °F 4.4 °F 13.1 °F 81% 30.08 in 10.0 mi SE 13.8 mph - N/A   Clear
4:15 PM 17.6 °F 3.2 °F 13.6 °F 84% 30.06 in 10.0 mi SE 15.0 mph - N/A   Clear
4:35 PM 18.5 °F 4.3 °F 14.0 °F 83% 30.04 in 10.0 mi SE 15.0 mph - N/A   Clear
4:55 PM 18.1 °F 3.9 °F 14.0 °F 84% 30.02 in 10.0 mi SE 15.0 mph - N/A   Clear
5:15 PM 18.0 °F 2.2 °F 14.4 °F 86% 30.02 in 10.0 mi SE 18.4 mph - N/A   Clear
5:35 PM 17.6 °F 2.7 °F 14.0 °F 86% 30.00 in 10.0 mi SE 16.1 mph - N/A   Clear
5:55 PM 17.2 °F 2.2 °F 13.8 °F 86% 29.99 in 10.0 mi SE 16.1 mph - N/A   Clear
6:15 PM 16.7 °F 1.5 °F 13.8 °F 88% 30.00 in 10.0 mi SE 16.1 mph - N/A   Clear
6:35 PM 15.8 °F 2.1 °F 13.1 °F 89% 30.02 in 10.0 mi SE 12.7 mph - N/A   Clear
6:55 PM 15.3 °F 0.8 °F 12.6 °F 89% 30.00 in 10.0 mi SE 13.8 mph - N/A   Clear
7:35 PM 15.8 °F -0.6 °F 13.1 °F 89% 29.99 in 10.0 mi SE 18.4 mph - N/A   Clear
7:55 PM 16.2 °F -0.2 °F 13.5 °F 89% 29.99 in 10.0 mi SE 18.4 mph - N/A   Clear
8:15 PM 17.2 °F 0.8 °F 14.4 °F 88% 29.98 in 10.0 mi SE 19.6 mph - N/A   Clear
8:35 PM 17.8 °F 1.5 °F 14.9 °F 88% 29.97 in 10.0 mi SE 19.6 mph - N/A   Clear
8:55 PM 18.0 °F 1.3 °F 14.9 °F 88% 29.98 in 10.0 mi ESE 20.7 mph - N/A   Clear
9:15 PM 18.0 °F 1.7 °F 14.9 °F 88% 29.97 in 10.0 mi ESE 19.6 mph - N/A   Clear
9:35 PM 18.5 °F 1.6 °F 15.8 °F 89% 29.95 in 7.0 mi SE 21.9 mph - N/A   Clear
9:55 PM 19.0 °F 2.0 °F 16.3 °F 89% 29.93 in 7.0 mi SE 23.0 mph - N/A   Clear
10:15 PM 19.2 °F 0.9 °F 16.3 °F 89% 29.91 in 4.0 mi SE 27.6 mph - N/A   Clear
10:35 PM 19.4 °F 1.1 °F 16.5 °F 89% 29.89 in 4.0 mi SE 27.6 mph 32.2 mph N/A   Clear
10:55 PM 19.6 °F 1.4 °F 16.7 °F 89% 29.86 in 3.0 mi SE 27.6 mph 33.4 mph N/A   Clear
11:15 PM 19.9 °F 1.0 °F 17.1 °F 89% 29.85 in 2.0 mi SE 31.1 mph 38.0 mph N/A   Clear
11:35 PM 20.3 °F 1.5 °F 17.2 °F 88% 29.82 in 2.5 mi SE 31.1 mph 36.8 mph N/A   Clear
11:55 PM 20.3 °F 2.3 °F 17.6 °F 89% 29.80 in 2.0 mi SE 27.6 mph 35.7 mph N/A   Clear